STARLINK-32153, 60330

Orbit data source: Space-Track

STARLINK-32153, 60330 is a payload satellite owned by SpaceX/Seattle (US) in LEO that was launched on Fri, 02 Aug 2024 UTC via an FALCON 9 launch vehicle from the Air Force Eastern Test Range (AFETR). Payload-class satellites include a variety of spacecraft equipped with specific instruments for various scientific and technological missions. These include communications satellites like Starlink; space stations such as the ISS; scientific satellites like the Hubble; Earth observation satellites from companies like Planet Labs, Umbra, and HawkEye 360; GPS; miniature CubeSats for education and research; and military/defense satellites.

Loading next visibility...
Identifier
60330, 2024-136B
Orbit
LEO
Country
Flag of USUS
Related business
Manufacturer
SpaceX/Seattle
Mission
Operational Commercial Communications
Bus & Motor
STARLINK V2M, Unknown motor
Mass
730 kg wet, ~700 kg dry
Launch date (UTC)
2024-08-02 (1 year ago)
Launch vehicle
FALCON 9
Launch site
Air Force Eastern Test Range (AFETR)
Object type
Payload
Rocket body
Debris
Shape & HBR
Box + 2 Pan, 14.5 m
Radar Cross Section
33.884 m², Large (>1 m²)

Expand to show TLE details & history
Last TLE update: 19 hours ago

TLE from 19 hours ago
0 STARLINK-32153
1 60330U 24136B   25260.17048611  .00000037  00000-0  13389-4 0  9999
2 60330  53.1581 161.9583 0001064  98.4994 261.6127 15.30188367 63099
Epoch: 2025-09-17T04:05Z
TLE epoch observation values (Epoch: 2025-09-17T04:05:29.999Z)
Latitude
-0.00007°
Longitude
104.23298°
Altitude
476.256 km
Speed
7.629 km/s
True Right ascension
10h 47m 49s
True Declination
0° 00' 00"
Sunlit
Object was in daylight at epoch
Visualization orbit readout
Latitude
Unknown
Longitude
Unknown
Altitude
Unknown
Speed
Unknown
Apparent Right ascension
Unknown
Apparent Declination
Unknown
Sunlit
N/A
Visualization observer readout
Local Sidereal Time
16:07:19
Azimuth
Unknown
Elevation
Unknown
Doppler factor
Unknown
Orbital elements
Apogee altitude
476.236 km
Perigee altitude
474.777 km
Semi-major axis
6,853.644 km
Eccentricity
0.00011
Inclination
53.1581°
RAAN
161.9583°
Arg. of periapsis
98.4994°
True anomaly
261.60064°
Mean anomaly
261.6127°
Eccentric anomaly
261.60667°
Mean motion
3.82526 °/min
Orbital period
94.11 mins
BSTAR
0.000013389
Loading maneuver chart data...
Computing Atmospheric mass density...
Loading historical data...
Loading historical data...
Loading historical data...
Loading historical data...
Loading historical data...
Loading historical data...
Loading historical data...

Documentation

Showing up to 5 results
|